www.pogodaiklimat.ru

Погода и климат >> Архив погоды >> Россия >> Астраханская область >> Астрахань


АРХИВ ПОГОДЫ в Астрахани

Время (UTC), дата Ветер
(напр.,м/с)
 
Видим.   Явления Облачность Т
(С)
Тd
(С)
f
(%)
Тe
(С)
Тes
(С)
Комфортность P
(гПа)
Po
(гПа)
Тmin
(С)
Tmax
(С)
R
(мм)
R24
(мм)
S
(см)
06 17.08 В 3 10 км {ливн. осадки} 9/3 600 м
[Cb cap Ac trans Ci fib]
+28.9 +13.5 39 +31 +34 жарко 1016.8 1019.2 +23.1
09 17.08 В 5-10
{10}
10 км 9/0
[Ac trans]
+31.5 +8.7 24 +30 +34 жарко 1017.6 1020.0
12 17.08 В 3
{12}
10 км пыльный позёмок 5/0
[Ac trans]
+31.6 +2.6 16 +29 +33 жарко 1017.7 1020.1
15 17.08 СВ 2
{10}
10 км 4/0
[Ac trans Ci fib]
+27.7 +8.3 29 +27 +28 жарко 1017.5 1019.9 +32.5 0.0
18 17.08 СВ 2 10 км 5/0
[Ci fib]
+22.6 +10.7 47 +25 +25 комфорт 1017.4 1019.8
21 17.08 С 3 10 км 3/0
[Ac trans]
+22.8 +6.0 34 +23 +23 комфорт 1016.5 1019.0
00 18.08 СВ 4 10 км 8/0
[Ac trans Ci fib]
+22.5 +4.4 31 +23 +23 комфорт 1016.2 1018.6
03 18.08 СВ 4 10 км 8/0
[Ac trans Ci fib]
+22.0 +4.8 33 +22 +23 комфорт 1016.5 1018.9 +21.2
06 18.08 СВ 4 10 км 8/3 1000 м
[Cu hum Ac trans Ci fib]
+28.5 +8.9 29 +28 +31 жарко 1016.8 1019.2
09 18.08 В 4
{10}
10 км 9/0
[Ac trans Ci fib]
+32.0 +7.7 22 +31 +37 жарко 1017.1 1019.5
12 18.08 В 4
{13}
10 км 8/3 1000 м
[Cu hum Ac trans Ci fib]
+30.8 +4.7 19 +29 +31 жарко 1017.6 1020.0
15 18.08 СВ 1 10 км 9/0
[Ac trans Ci fib]
+28.8 +6.1 24 +28 +28 жарко 1017.6 1020.0 +32.9
18 18.08 СВ 1 10 км ясно +22.1 +11.0 49 +24 +24 комфорт 1017.9 1020.4
21 18.08 штиль 0 10 км ясно +17.7 +12.7 73 +18 +18 прохладно 1017.8 1020.3
00 19.08 С 1 10 км ясно +16.8 +12.8 77 +18 +18 по сезону 1018.1 1020.6
03 19.08 СВ 1 10 км 3/0
[Ac trans]
+20.5 +10.4 52 +23 +24 комфорт 1017.3 1019.7 +15.1
06 19.08 СВ 2 10 км 4/0
[Ac trans Ci fib]
+30.7 +4.5 19 +29 +36 жарко 1019.2 1021.6
09 19.08 СВ 4 10 км ясно +34.1 +2.8 14 +31 +41 жарко 1018.8 1021.2
12 19.08 В 3
{10}
10 км 3/1 600 м
[Cb cap Ci fib]
+34.1 +2.8 14 +31 +37 жарко 1018.6 1021.0
15 19.08 В 1 10 км 3/0
[Ac trans Ci fib]
+30.8 +6.9 22 +29 +30 жарко 1018.8 1021.2 +34.7
18 19.08 штиль 0 10 км ясно +22.0 +12.4 54 +24 +24 комфорт 1019.4 1021.9
21 19.08 СВ 2 10 км 6/0
[Ac trans Ci fib]
+22.9 +13.6 56 +26 +26 жарко 1018.8 1021.3
00 20.08 В 1 10 км 9/0
[Ac trans]
+22.8 +12.8 53 +26 +26 жарко 1018.5 1021.0
03 20.08 В 1 10 км 9/8 600 м
[Cb cap Ac trans]
+23.9 +16.9 65 +28 +28 душно 1018.6 1021.1 +21.2
06 20.08 ЮВ 4
{11}
10 км слабый ливневой дождь 9/8 600 м
[Cb cap Ac trans]
+28.3 +9.7 31 +28 +29 жарко 1020.0 1022.4
09 20.08 В 3
{11}
10 км {ливн. осадки} 10/10 600 м
[Cb cap]
+29.3 +7.1 25 +28 +28 жарко 1020.3 1022.8
12 20.08 СВ 3 10 км {ливн. осадки} 9/6 600 м
[Cb cap Ac trans]
+29.2 +9.7 30 +29 +31 жарко 1019.8 1022.3
15 20.08 СВ 3 10 км 9/3 600 м
[Cb cap Ac trans Ci fib]
+27.6 +13.5 42 +29 +30 жарко 1019.3 1021.7 +31.1 0.0
18 20.08 СВ 2 10 км 9/6 600 м
[Cb cap Ac trans Ci fib]
+23.5 +12.4 50 +25 +25 комфорт 1019.7 1022.2
21 20.08 СВ 3 10 км 9/3 600 м
[Cb cap Ac trans Ci fib]
+23.3 +5.3 31 +23 +23 комфорт 1018.4 1020.8
00 21.08 СВ 3 10 км 9/6 600 м
[Cb cap Ac trans Ci fib]
+23.0 +4.5 30 +23 +23 комфорт 1017.4 1019.9
03 21.08 С 4 10 км 9/5 600 м
[Cb cap Ac trans Ci fib]
+21.9 +8.0 41 +23 +23 комфорт 1016.3 1018.8 +21.9
06 21.08 С 3 10 км 9/6 600 м
[Cb cap Ac trans]
+23.8 +14.6 56 +26 +28 жарко 1017.0 1019.5 +21.6
09 21.08 СВ 5-10
{11}
10 км {ливн. осадки} 9/8 600 м
[Cb cap Ac trans]
+27.0 +11.8 39 +28 +29 жарко 1016.6 1019.0
12 21.08 СВ 5
{12}
10 км {ливн. осадки} 8/4 1000 м
[Sc diur, vesp Ac trans Ci fib]
+29.4 +8.6 27 +29 +30 жарко 1015.5 1017.9
15 21.08 СВ 3
{11}
10 км 5/3 600 м
[Cb cap Ac trans]
+26.6 +7.8 30 +26 +27 жарко 1014.7 1017.1 +29.7
18 21.08 СВ 3 10 км 3/0
[Ac trans]
+22.5 +15.8 66 +27 +27 душно 1014.8 1017.2
21 21.08 СВ 3 10 км ясно +21.0 +13.5 62 +24 +24 комфорт 1013.8 1016.3
00 22.08 СВ 1 10 км 3/0
[Ci fib]
+20.2 +15.0 72 +24 +24 комфорт 1013.3 1015.7
03 22.08 СВ 3 10 км 1/0
[Ac trans]
+19.9 +14.4 71 +22 +23 комфорт 1013.3 1015.8 +19.4
06 22.08 СВ 3 10 км ясно +29.3 +12.5 36 +30 +38 жарко 1013.3 1015.7
09 22.08 В 3
{10}
10 км ясно +33.1 +1.9 14 +30 +42 жарко 1013.0 1015.3
12 22.08 В 3
{11}
10 км ясно +32.4 +6.2 19 +30 +37 жарко 1012.7 1015.1
15 22.08 В 2 10 км ясно +28.6 +9.0 29 +28 +29 жарко 1012.2 1014.6 +33.3
18 22.08 СВ 3 10 км ясно +24.2 +11.1 44 +26 +26 жарко 1012.3 1014.7
21 22.08 В 1 10 км ясно +22.9 +14.1 58 +26 +26 жарко 1011.3 1013.7
00 23.08 В 2 10 км ясно +22.5 +12.4 53 +25 +25 комфорт 1011.8 1014.2
03 23.08 В 3 10 км 5/0
[Ci fib]
+24.4 +11.2 44 +26 +26 жарко 1013.4 1015.8 +22.0
06 23.08 В 5
{11}
10 км пыльный позёмок 1/0
[Ci fib]
+30.3 +8.2 25 +29 +34 жарко 1014.6 1017.0
09 23.08 В 6-13
{14}
10 км пыльный позёмок 4/0
[Ci fib]
+32.4 +5.2 18 +30 +35 жарко 1013.7 1016.1
12 23.08 В 6-14
{15}
10 км пыльный позёмок 6/0
[Ci fib]
+31.8 +4.7 18 +30 +32 жарко 1013.0 1015.4
15 23.08 В 3
{14}
10 км 9/0
[Ac cast]
+27.6 +10.4 34 +28 +28 жарко 1013.6 1016.0 +32.9
18 23.08 штиль 0 10 км 8/0
[Ac trans Ci fib]
+22.6 +12.9 54 +25 +25 комфорт 1015.3 1017.8
21 23.08 штиль 0 10 км 6/1 600 м
[Cb cap Ac trans Ci fib]
+21.2 +14.9 67 +24 +24 комфорт 1015.0 1017.5
00 24.08 СЗ 2 10 км 9/8 600 м
[Cb cap Ac trans]
+21.6 +17.0 75 +26 +26 душно 1014.9 1017.3
03 24.08 СЗ 1 10 км 5/3 600 м
[Sc diur, vesp Ac trans]
+20.8 +16.1 74 +25 +26 комфорт 1016.0 1018.5 +20.2

 

Местоположение метеостанции Астрахань (Астраханская область, Россия): широта 46.28 долгота 47.98 высота над уровнем моря -21 м.

В архиве по умолчанию представлена погода в Астрахани за последнюю неделю. Архивные данные за месяц целиком и за предыдущие месяцы, начиная с января 2011 года, Вы можете получить, выбрав интересующий диапазон дат из раскрывающегося списка и нажав кнопку "Ввод!".

Внимание! Время в таблицах - всемирное. Для получения местного времени необходимо прибавить поправку, которая в Астрахани равна 4 ч.

Смотрите также архив погоды в соседних городах и на ближайших метеорологических станциях:

Погода в Зеленге (Астраханская область, Россия) (50 км)
Погода в Досанге (Астраханская область, Россия) (71 км)
Погода в Лимане (Астраханская область, Россия) (79 км)
Погода в Ганюшкино (Атырауская область, Казахстан) (105 км)
Погода в Лагани (Калмыкия, Россия) (109 км)
Погода в Харабали (Астраханская область, Россия) (136 км)
Погода в Утте (Калмыкия, Россия) (151 км)
Погода в Юсте (Калмыкия, Россия) (158 км)
Погода в Исатай (Атырауская область, Казахстан) (170 км)
Погода в Артезиане (Калмыкия, Россия) (177 км)

Пояснения к столбцам:

Ветер - указаны скорость ветра в м/с - средняя за 10 мин, порывы в срок и между сроками (в фигурных скобках) и направление, откуда дует ветер: С - северный, СВ - северо-восточный, В - восточный, ЮВ - юго-восточный, Ю - южный, ЮЗ - юго-западный, З - западный, СЗ - северо-западный.
Видимость - горизонтальная дальность видимости в метрах или километрах. При видимости от 1 до 10 км при отсутствии осадков обычно наблюдается дымка, при ухудшении видимости до 1 км и менее - туман. В сухую погоду видимость может ухудшаться дымом, пылью или мглою.
Явления - указаны атмосферные явления, наблюдавшиеся в срок или в последний час перед сроком; фигурными скобками обозначены явления, наблюдавшиеся между сроками (за 1-3 часа до срока); квадратными скобками обозначены град или гололедные отложения с указанием их диаметра в мм.
Облачность - указаны через наклонную черту общая и нижняя облачность в баллах и высота нижней границы облаков в метрах; квадратными скобками обозначены формы облаков: Ci - перистые, Cs - перисто-слоистые, Cc - перисто-кучевые, Ac - высококучевые, As - высокослоистые, Sc - слоисто-кучевые, Ns - слоисто-дождевые, Cu - кучевые, Cb - кучево-дождевые. Подробнее классификацию облаков см. в Атласе облаков (PDF).
T - Температура воздуха - температура, измеренная на высоте 2 м над землей.
Td - Температура точки росы - температура, при понижении до которой содержащийся в воздухе водяной пар достигнет насыщения.
f - Относительная влажность воздуха - влажноcть воздуха, измеренная на высоте 2 м над землей.
Te - Эффективная температура - температура, которую ощущает одетый по сезону человек в тени. Характеристика душности погоды. При расчете учитывается влияние влажности воздуха и скорости ветра на теплоощущения человека.
Tes - Эффективная температура на солнце - температура, которую ощущает человек, с поправкой на солнечный нагрев. Характеристика знойности погоды. Зависит от высоты солнца над горизонтом, облачности и скорости ветра. Ночью, в пасмурную погоду, а также при ветре 12 м/с и более поправка равна нулю.
P - Атмосферное давление - приведенное к уровню моря атмосферное давление.
Po - Атмосферное давление - измеренное на уровне метеостанции атмосферное давление.
Tmin - Минимальная температура - минимум температуры воздуха на высоте 2 м над землей.
Tmax - Максимальная температура - максимум температуры воздуха на высоте 2 м над землей.
R - Количество осадков - Количество выпавших осадков за период времени, мм. При наведении курсора мыши на число - период времени, за который выпало указанное количество осадков.
R24 - Количество осадков - Количество выпавших осадков за 24 часа, мм.
S - Снежный покров - Высота снежного покрова, см. При наведении курсора мыши на число - состояние снежного покрова и степень покрытия местности в баллах.